"read_dt","SO2 (ppb)","flags","PMT voltage (V)","lamp voltage (V)","lamp intensity (Hz)","internal temp (C)","react chamber temp (C)","sample flow (l/min)","pres (mmHg)","SO2 bkg (ppb)","SO2 coefficient"
2016-03-09 00:00:00,1929E-3,5C000400,-0724,0837,11974,029.5,045.5,0.252,752.9,01.17,0.508
2016-03-09 00:01:00,1823E-3,5C000400,-0724,0838,12136,029.5,045.5,0.253,752.9,01.17,0.508
2016-03-09 00:02:00,1813E-3,5C000400,-0724,0838,12074,029.5,045.5,0.253,752.9,01.17,0.508
2016-03-09 00:03:00,1919E-3,5C000400,-0724,0837,12091,029.5,045.5,0.252,752.9,01.17,0.508
2016-03-09 00:04:00,1734E-3,5C000400,-0724,0838,12146,029.5,045.5,0.253,752.9,01.17,0.508
2016-03-09 00:05:00,1883E-3,5C000400,-0724,0838,12171,029.4,045.5,0.252,752.9,01.17,0.508
2016-03-09 00:06:00,1851E-3,5C000400,-0724,0838,12099,029.5,045.5,0.253,752.9,01.17,0.508
2016-03-09 00:07:00,1771E-3,5C000400,-0724,0837,12162,029.5,045.5,0.252,752.9,01.17,0.508
2016-03-09 00:08:00,1992E-3,5C000400,-0724,0838,12157,029.5,045.5,0.253,752.9,01.17,0.508
2016-03-09 00:09:00,1872E-3,5C000400,-0724,0838,12025,029.5,045.5,0.253,752.9,01.17,0.508
2016-03-09 00:10:00,1839E-3,5C000400,-0724,0838,12128,029.5,045.5,0.252,752.9,01.17,0.508
2016-03-09 00:11:00,1862E-3,5C000400,-0724,0838,11994,029.5,045.5,0.253,752.8,01.17,0.508
2016-03-09 00:12:00,1993E-3,5C000400,-0724,0838,12031,029.5,045.5,0.252,752.8,01.17,0.508
2016-03-09 00:13:00,1881E-3,5C000400,-0724,0838,12124,029.5,045.5,0.253,752.8,01.17,0.508
2016-03-09 00:14:00,1798E-3,5C000400,-0724,0838,12195,029.5,045.5,0.252,752.8,01.17,0.508
2016-03-09 00:15:00,1844E-3,5C000400,-0724,0838,12046,029.5,045.5,0.253,752.7,01.17,0.508
2016-03-09 00:16:00,1944E-3,5C000400,-0724,0838,12077,029.5,045.5,0.252,752.8,01.17,0.508
2016-03-09 00:17:00,1801E-3,5C000400,-0724,0838,12208,029.5,045.5,0.252,752.8,01.17,0.508
2016-03-09 00:18:00,1924E-3,5C000400,-0724,0837,12134,029.5,045.5,0.253,752.8,01.17,0.508
2016-03-09 00:19:00,1761E-3,5C000400,-0724,0838,12160,029.5,045.5,0.252,752.8,01.17,0.508
2016-03-09 00:20:00,2009E-3,5C000400,-0724,0838,12245,029.5,045.5,0.253,752.8,01.17,0.508
2016-03-09 00:21:00,1944E-3,5C000400,-0724,0839,12163,029.5,045.5,0.252,752.7,01.17,0.508
2016-03-09 00:22:00,1865E-3,5C000400,-0724,0838,12236,029.5,045.5,0.253,752.8,01.17,0.508
2016-03-09 00:23:00,1696E-3,5C000400,-0724,0837,12147,029.5,045.5,0.252,752.8,01.17,0.508
2016-03-09 00:24:00,1804E-3,5C000400,-0724,0838,12178,029.5,045.5,0.252,752.8,01.17,0.508
2016-03-09 00:25:00,1847E-3,5C000400,-0724,0837,12267,029.5,045.5,0.253,752.8,01.17,0.508
2016-03-09 00:26:00,1860E-3,5C000400,-0724,0838,12217,029.4,045.5,0.252,752.8,01.17,0.508
2016-03-09 00:27:00,1820E-3,5C000400,-0724,0838,12170,029.4,045.5,0.253,752.8,01.17,0.508
2016-03-09 00:28:00,1770E-3,5C000400,-0724,0838,12248,029.4,045.5,0.252,752.8,01.17,0.508
2016-03-09 00:29:00,1927E-3,5C000400,-0724,0838,12149,029.4,045.5,0.253,752.8,01.17,0.508
2016-03-09 00:30:00,1810E-3,5C000400,-0724,0838,12073,029.4,045.5,0.252,752.8,01.17,0.508
2016-03-09 00:31:00,1907E-3,5C000400,-0724,0839,12146,029.5,045.5,0.252,752.8,01.17,0.508
2016-03-09 00:32:00,1887E-3,5C000400,-0724,0838,12243,029.4,045.5,0.253,752.8,01.17,0.508
2016-03-09 00:33:00,1858E-3,5C000400,-0724,0838,12066,029.4,045.5,0.252,752.8,01.17,0.508
2016-03-09 00:34:00,1833E-3,5C000400,-0724,0838,12183,029.5,045.5,0.253,752.8,01.17,0.508
2016-03-09 00:35:00,1891E-3,5C000400,-0724,0838,12019,029.5,045.5,0.252,752.8,01.17,0.508
2016-03-09 00:36:00,1769E-3,5C000400,-0724,0838,12226,029.5,045.5,0.253,752.7,01.17,0.508
2016-03-09 00:37:00,1796E-3,5C000400,-0724,0838,11953,029.5,045.5,0.253,752.7,01.17,0.508
2016-03-09 00:38:00,1887E-3,5C000400,-0724,0837,12154,029.4,045.5,0.252,752.7,01.17,0.508
2016-03-09 00:39:00,1968E-3,5C000400,-0724,0838,12146,029.5,045.5,0.253,752.7,01.17,0.508
2016-03-09 00:40:00,1990E-3,5C000400,-0724,0838,12021,029.4,045.5,0.252,752.7,01.17,0.508
2016-03-09 00:41:00,1890E-3,5C000400,-0724,0837,12108,029.4,045.5,0.253,752.7,01.17,0.508
2016-03-09 00:42:00,1867E-3,5C000400,-0724,0837,12128,029.4,045.5,0.253,752.7,01.17,0.508
2016-03-09 00:43:00,1766E-3,5C000400,-0724,0837,12148,029.5,045.5,0.253,752.6,01.17,0.508
2016-03-09 00:44:00,1741E-3,5C000400,-0724,0838,12214,029.5,045.5,0.252,752.6,01.17,0.508
2016-03-09 00:45:00,1794E-3,5C000400,-0724,0837,12171,029.4,045.5,0.253,752.6,01.17,0.508
2016-03-09 00:46:00,1856E-3,5C000400,-0724,0837,11972,029.5,045.5,0.253,752.7,01.17,0.508
2016-03-09 00:47:00,1813E-3,5C000400,-0724,0838,12125,029.5,045.5,0.253,752.6,01.17,0.508
2016-03-09 00:48:00,1889E-3,5C000400,-0724,0838,12169,029.5,045.5,0.253,752.6,01.17,0.508
2016-03-09 00:49:00,1758E-3,5C000400,-0724,0837,12131,029.4,045.5,0.252,752.6,01.17,0.508
2016-03-09 00:50:00,1881E-3,5C000400,-0724,0838,12138,029.5,045.5,0.253,752.6,01.17,0.508
2016-03-09 00:51:00,1847E-3,5C000400,-0724,0838,12021,029.4,045.5,0.252,752.6,01.17,0.508
2016-03-09 00:52:00,1835E-3,5C000400,-0724,0838,12023,029.4,045.5,0.253,752.5,01.17,0.508
2016-03-09 00:53:00,1996E-3,5C000400,-0724,0837,12044,029.5,045.5,0.252,752.5,01.17,0.508
2016-03-09 00:54:00,1844E-3,5C000400,-0724,0838,12141,029.5,045.5,0.253,752.5,01.17,0.508
2016-03-09 00:55:00,1912E-3,5C000400,-0724,0837,11922,029.4,045.5,0.253,752.5,01.17,0.508
2016-03-09 00:56:00,1771E-3,5C000400,-0724,0837,12216,029.4,045.5,0.252,752.5,01.17,0.508
2016-03-09 00:57:00,1883E-3,5C000400,-0724,0838,12187,029.4,045.5,0.253,752.5,01.17,0.508
2016-03-09 00:58:00,2076E-3,5C000400,-0724,0837,12167,029.4,045.5,0.252,752.5,01.17,0.508
2016-03-09 00:59:00,1897E-3,5C000400,-0724,0838,12184,029.4,045.5,0.253,752.5,01.17,0.508
2016-03-09 01:00:00,1905E-3,5C000400,-0724,0838,12027,029.4,045.5,0.253,752.5,01.17,0.508
2016-03-09 01:01:00,1846E-3,5C000400,-0724,0838,12073,029.4,045.5,0.253,752.5,01.17,0.508
2016-03-09 01:02:00,1910E-3,5C000400,-0724,0838,12180,029.5,045.5,0.253,752.5,01.17,0.508
2016-03-09 01:03:00,1827E-3,5C000400,-0724,0839,12088,029.4,045.5,0.252,752.5,01.17,0.508
2016-03-09 01:04:00,1877E-3,5C000400,-0724,0837,12142,029.4,045.5,0.253,752.5,01.17,0.508
2016-03-09 01:05:00,1804E-3,5C000400,-0724,0837,12056,029.4,045.5,0.252,752.5,01.17,0.508
2016-03-09 01:06:00,1747E-3,5C000400,-0724,0837,12193,029.5,045.5,0.253,752.5,01.17,0.508
2016-03-09 01:07:00,1961E-3,5C000400,-0724,0837,12166,029.4,045.5,0.252,752.5,01.17,0.508
2016-03-09 01:08:00,1813E-3,5C000400,-0724,0837,12139,029.4,045.5,0.253,752.5,01.17,0.508
2016-03-09 01:09:00,1991E-3,5C000400,-0724,0837,11987,029.5,045.5,0.253,752.5,01.17,0.508
2016-03-09 01:10:00,1867E-3,5C000400,-0724,0838,12061,029.4,045.5,0.253,752.5,01.17,0.508
2016-03-09 01:11:00,1982E-3,5C000400,-0724,0838,11871,029.4,045.5,0.253,752.5,01.17,0.508
2016-03-09 01:12:00,1968E-3,5C000400,-0724,0838,12125,029.4,045.5,0.252,752.5,01.17,0.508
2016-03-09 01:13:00,1931E-3,5C000400,-0724,0838,12067,029.4,045.5,0.253,752.5,01.17,0.508
2016-03-09 01:14:00,1864E-3,5C000400,-0724,0838,12060,029.4,045.5,0.252,752.5,01.17,0.508
2016-03-09 01:15:00,1886E-3,5C000400,-0724,0838,12131,029.4,045.5,0.253,752.5,01.17,0.508
2016-03-09 01:16:00,1868E-3,5C000400,-0724,0837,12159,029.4,045.5,0.253,752.5,01.17,0.508
2016-03-09 01:17:00,1820E-3,5C000400,-0724,0837,12220,029.4,045.5,0.253,752.5,01.17,0.508
2016-03-09 01:18:00,1928E-3,5C000400,-0724,0838,12146,029.4,045.5,0.253,752.5,01.17,0.508
2016-03-09 01:19:00,1707E-3,5C000400,-0724,0838,12182,029.4,045.5,0.252,752.5,01.17,0.508
2016-03-09 01:20:00,1951E-3,5C000400,-0724,0838,12069,029.4,045.5,0.253,752.5,01.17,0.508
2016-03-09 01:21:00,2004E-3,5C000400,-0724,0838,12157,029.4,045.5,0.252,752.5,01.17,0.508
2016-03-09 01:22:00,1849E-3,5C000400,-0724,0838,12008,029.4,045.5,0.253,752.5,01.17,0.508
2016-03-09 01:23:00,1837E-3,5C000400,-0724,0838,12224,029.4,045.5,0.252,752.5,01.17,0.508
2016-03-09 01:24:00,1928E-3,5C000400,-0724,0837,12146,029.4,045.5,0.253,752.5,01.17,0.508
2016-03-09 01:25:00,1834E-3,5C000400,-0724,0837,12013,029.4,045.5,0.253,752.4,01.17,0.508
2016-03-09 01:26:00,1826E-3,5C000400,-0724,0837,11995,029.4,045.5,0.253,752.4,01.17,0.508
2016-03-09 01:27:00,1896E-3,5C000400,-0724,0838,12100,029.4,045.5,0.253,752.4,01.17,0.508
2016-03-09 01:28:00,1894E-3,5C000400,-0724,0838,12062,029.4,045.5,0.252,752.4,01.17,0.508
2016-03-09 01:29:00,1782E-3,5C000400,-0724,0837,12036,029.4,045.5,0.253,752.4,01.17,0.508
2016-03-09 01:30:00,1929E-3,5C000400,-0724,0838,12058,029.4,045.5,0.252,752.4,01.17,0.508
2016-03-09 01:31:00,1838E-3,5C000400,-0724,0838,12093,029.4,045.5,0.253,752.4,01.17,0.508
2016-03-09 01:32:00,2001E-3,5C000400,-0724,0838,12109,029.3,045.5,0.252,752.4,01.17,0.508
2016-03-09 01:33:00,1872E-3,5C000400,-0724,0838,12230,029.3,045.5,0.253,752.4,01.17,0.508
2016-03-09 01:34:00,1930E-3,5C000400,-0724,0837,12012,029.3,045.5,0.253,752.4,01.17,0.508
2016-03-09 01:35:00,2020E-3,5C000400,-0724,0837,12134,029.3,045.5,0.252,752.3,01.17,0.508
2016-03-09 01:36:00,1918E-3,5C000400,-0724,0837,11864,029.3,045.5,0.253,752.4,01.17,0.508
2016-03-09 01:37:00,1825E-3,5C000400,-0724,0838,12080,029.3,045.5,0.252,752.3,01.17,0.508
2016-03-09 01:38:00,1977E-3,5C000400,-0724,0838,12127,029.4,045.5,0.253,752.3,01.17,0.508
2016-03-09 01:39:00,1803E-3,5C000400,-0724,0839,12084,029.4,045.5,0.253,752.3,01.17,0.508
2016-03-09 01:40:00,1835E-3,5C000400,-0724,0838,12164,029.4,045.5,0.253,752.3,01.17,0.508
2016-03-09 01:41:00,1829E-3,5C000400,-0724,0837,12115,029.4,045.5,0.253,752.3,01.17,0.508
2016-03-09 01:42:00,1987E-3,5C000400,-0724,0838,12036,029.3,045.5,0.253,752.3,01.17,0.508
2016-03-09 01:43:00,1839E-3,5C000400,-0724,0838,12103,029.3,045.5,0.253,752.2,01.17,0.508
2016-03-09 01:44:00,1876E-3,5C000400,-0724,0839,12216,029.3,045.5,0.253,752.2,01.17,0.508
2016-03-09 01:45:00,1857E-3,5C000400,-0724,0838,12219,029.4,045.5,0.253,752.2,01.17,0.508
2016-03-09 01:46:00,1722E-3,5C000400,-0724,0837,12086,029.4,045.5,0.253,752.3,01.17,0.508
2016-03-09 01:47:00,1923E-3,5C000400,-0724,0837,12013,029.4,045.5,0.253,752.3,01.17,0.508
2016-03-09 01:48:00,1843E-3,5C000400,-0724,0838,11896,029.4,045.5,0.253,752.3,01.17,0.508
2016-03-09 01:49:00,1943E-3,5C000400,-0724,0837,12306,029.3,045.5,0.253,752.3,01.17,0.508
2016-03-09 01:50:00,1747E-3,5C000400,-0724,0837,12044,029.3,045.5,0.253,752.3,01.17,0.508
2016-03-09 01:51:00,1843E-3,5C000400,-0724,0838,12137,029.3,045.5,0.252,752.3,01.17,0.508
2016-03-09 01:52:00,1945E-3,5C000400,-0724,0837,12120,029.3,045.5,0.253,752.3,01.17,0.508
2016-03-09 01:53:00,1880E-3,5C000400,-0724,0837,12124,029.3,045.5,0.253,752.3,01.17,0.508
2016-03-09 01:54:00,2013E-3,5C000400,-0724,0838,12158,029.3,045.5,0.253,752.3,01.17,0.508
2016-03-09 01:55:00,1802E-3,5C000400,-0724,0838,12273,029.3,045.5,0.253,752.3,01.17,0.508
2016-03-09 01:56:00,1929E-3,5C000400,-0724,0837,12217,029.3,045.5,0.253,752.3,01.17,0.508
2016-03-09 01:57:00,1826E-3,5C000400,-0724,0838,12126,029.4,045.5,0.253,752.3,01.17,0.508
2016-03-09 01:58:00,2010E-3,5C000400,-0724,0837,12158,029.3,045.5,0.252,752.3,01.17,0.508
2016-03-09 01:59:00,1799E-3,5C000400,-0724,0838,11967,029.3,045.5,0.253,752.3,01.17,0.508
2016-03-09 02:00:00,1923E-3,5C000400,-0724,0839,12097,029.3,045.5,0.252,752.3,01.17,0.508
2016-03-09 02:01:00,1763E-3,5C000400,-0724,0837,12033,029.3,045.5,0.253,752.2,01.17,0.508
2016-03-09 02:02:00,1896E-3,5C000400,-0724,0837,12010,029.3,045.5,0.253,752.2,01.17,0.508
2016-03-09 02:03:00,1929E-3,5C000400,-0724,0837,12160,029.3,045.5,0.253,752.3,01.17,0.508
2016-03-09 02:04:00,1904E-3,5C000400,-0724,0837,11890,029.3,045.5,0.253,752.3,01.17,0.508
2016-03-09 02:05:00,1969E-3,5C000400,-0724,0838,11966,029.3,045.5,0.253,752.3,01.17,0.508
2016-03-09 02:06:00,1812E-3,5C000400,-0724,0837,12016,029.3,045.5,0.253,752.3,01.17,0.508
2016-03-09 02:07:00,1958E-3,5C000400,-0724,0837,12098,029.3,045.5,0.253,752.3,01.17,0.508
2016-03-09 02:08:00,1978E-3,5C000400,-0724,0838,12048,029.3,045.5,0.253,752.3,01.17,0.508
2016-03-09 02:09:00,1804E-3,5C000400,-0724,0837,12002,029.3,045.5,0.252,752.2,01.17,0.508
2016-03-09 02:10:00,1847E-3,5C000400,-0724,0838,12106,029.2,045.5,0.253,752.2,01.17,0.508
2016-03-09 02:11:00,1775E-3,5C000400,-0724,0837,12068,029.3,045.5,0.253,752.2,01.17,0.508
2016-03-09 02:12:00,1987E-3,5C000400,-0724,0837,12104,029.2,045.5,0.253,752.2,01.17,0.508
2016-03-09 02:13:00,1908E-3,5C000400,-0724,0839,12109,029.3,045.5,0.253,752.2,01.17,0.508
2016-03-09 02:14:00,1809E-3,5C000400,-0724,0837,12173,029.2,045.5,0.253,752.2,01.17,0.508
2016-03-09 02:15:00,1928E-3,5C000400,-0724,0838,12023,029.2,045.5,0.253,752.2,01.17,0.508
2016-03-09 02:16:00,2049E-3,5C000400,-0724,0837,12048,029.2,045.5,0.253,752.2,01.17,0.508
2016-03-09 02:17:00,1877E-3,5C000400,-0724,0837,12026,029.2,045.5,0.253,752.2,01.17,0.508
2016-03-09 02:18:00,1872E-3,5C000400,-0724,0838,12004,029.3,045.5,0.253,752.2,01.17,0.508
2016-03-09 02:19:00,1775E-3,5C000400,-0724,0838,12064,029.3,045.5,0.253,752.2,01.17,0.508
2016-03-09 02:20:00,1877E-3,5C000400,-0724,0837,12114,029.2,045.5,0.252,752.2,01.17,0.508
2016-03-09 02:21:00,1960E-3,5C000400,-0724,0838,12029,029.3,045.5,0.253,752.2,01.17,0.508
2016-03-09 02:22:00,1909E-3,5C000400,-0724,0838,12058,029.2,045.5,0.253,752.2,01.17,0.508
2016-03-09 02:23:00,1825E-3,5C000400,-0724,0837,12184,029.3,045.5,0.253,752.2,01.17,0.508
2016-03-09 02:24:00,1823E-3,5C000400,-0724,0838,12195,029.3,045.5,0.253,752.2,01.17,0.508
2016-03-09 02:25:00,1801E-3,5C000400,-0724,0838,12216,029.3,045.5,0.253,752.2,01.17,0.508
2016-03-09 02:26:00,1964E-3,5C000400,-0724,0837,12046,029.3,045.5,0.253,752.2,01.17,0.508
2016-03-09 02:27:00,1645E-3,5C000400,-0724,0838,11934,029.2,045.5,0.253,752.2,01.17,0.508
2016-03-09 02:28:00,1785E-3,5C000400,-0724,0838,12074,029.2,045.5,0.253,752.2,01.17,0.508
2016-03-09 02:29:00,1908E-3,5C000400,-0724,0837,12162,029.3,045.5,0.253,752.2,01.17,0.508
2016-03-09 02:30:00,1835E-3,5C000400,-0724,0838,12212,029.3,045.5,0.253,752.2,01.17,0.508
2016-03-09 02:31:00,1898E-3,5C000400,-0724,0838,12133,029.2,045.5,0.252,752.2,01.17,0.508
2016-03-09 02:32:00,1900E-3,5C000400,-0724,0837,12103,029.3,045.5,0.253,752.2,01.17,0.508
2016-03-09 02:33:00,1927E-3,5C000400,-0724,0837,12029,029.3,045.5,0.253,752.2,01.17,0.508
2016-03-09 02:34:00,1860E-3,5C000400,-0724,0837,12113,029.3,045.5,0.253,752.2,01.17,0.508
2016-03-09 02:35:00,1793E-3,5C000400,-0724,0837,12137,029.2,045.5,0.253,752.2,01.17,0.508
2016-03-09 02:36:00,1841E-3,5C000400,-0724,0838,12222,029.3,045.5,0.253,752.2,01.17,0.508
2016-03-09 02:37:00,1994E-3,5C000400,-0724,0838,12095,029.2,045.5,0.253,752.2,01.17,0.508
2016-03-09 02:38:00,1881E-3,5C000400,-0724,0836,12165,029.3,045.5,0.253,752.1,01.17,0.508
2016-03-09 02:39:00,1890E-3,5C000400,-0724,0838,12068,029.2,045.5,0.253,752.2,01.17,0.508
2016-03-09 02:40:00,1822E-3,5C000400,-0724,0837,12131,029.2,045.5,0.253,752.2,01.17,0.508
2016-03-09 02:41:00,1818E-3,5C000400,-0724,0837,11972,029.2,045.5,0.253,752.2,01.17,0.508
2016-03-09 02:42:00,1920E-3,5C000400,-0724,0837,12091,029.2,045.5,0.253,752.1,01.17,0.508
2016-03-09 02:43:00,1943E-3,5C000400,-0724,0838,12249,029.2,045.5,0.253,752.1,01.17,0.508
2016-03-09 02:44:00,1840E-3,5C000400,-0724,0837,12143,029.2,045.5,0.253,752.1,01.17,0.508
2016-03-09 02:45:00,1939E-3,5C000400,-0724,0837,12131,029.2,045.5,0.253,752.1,01.17,0.508
2016-03-09 02:46:00,1919E-3,5C000400,-0724,0837,12200,029.2,045.5,0.253,752.1,01.17,0.508
2016-03-09 02:47:00,1982E-3,5C000400,-0724,0837,12080,029.2,045.5,0.253,752.1,01.17,0.508
2016-03-09 02:48:00,1897E-3,5C000400,-0724,0837,12095,029.1,045.5,0.253,752.1,01.17,0.508
2016-03-09 02:49:00,1876E-3,5C000400,-0724,0838,12205,029.2,045.5,0.253,752.1,01.17,0.508
2016-03-09 02:50:00,1974E-3,5C000400,-0724,0837,12227,029.1,045.5,0.253,752.1,01.17,0.508
2016-03-09 02:51:00,1841E-3,5C000400,-0724,0837,12122,029.2,045.5,0.253,752.1,01.17,0.508
2016-03-09 02:52:00,1967E-3,5C000400,-0724,0838,12099,029.2,045.5,0.253,752.1,01.17,0.508
2016-03-09 02:53:00,1775E-3,5C000400,-0724,0837,12023,029.2,045.5,0.253,752.1,01.17,0.508
2016-03-09 02:54:00,1877E-3,5C000400,-0724,0838,12198,029.2,045.5,0.253,752.1,01.17,0.508
2016-03-09 02:55:00,1940E-3,5C000400,-0724,0838,11983,029.2,045.5,0.253,752.1,01.17,0.508
2016-03-09 02:56:00,1974E-3,5C000400,-0724,0838,12079,029.2,045.5,0.253,752.1,01.17,0.508
2016-03-09 02:57:00,1878E-3,5C000400,-0724,0837,12064,029.1,045.5,0.253,752.1,01.17,0.508
2016-03-09 02:58:00,1761E-3,5C000400,-0724,0836,12163,029.1,045.5,0.253,752.1,01.17,0.508
2016-03-09 02:59:00,1904E-3,5C000400,-0724,0838,12126,029.1,045.5,0.253,752.1,01.17,0.508
2016-03-09 03:00:00,1940E-3,5C000400,-0724,0837,12316,029.2,045.5,0.253,752.1,01.17,0.508
2016-03-09 03:01:00,1882E-3,5C000400,-0724,0838,12130,029.1,045.5,0.253,752.1,01.17,0.508
2016-03-09 03:02:00,1831E-3,5C000400,-0724,0838,12109,029.1,045.5,0.253,752.1,01.17,0.508
2016-03-09 03:03:00,1870E-3,5C000400,-0724,0838,11995,029.1,045.5,0.253,752.1,01.17,0.508
2016-03-09 03:04:00,1937E-3,5C000400,-0724,0837,12095,029.1,045.5,0.253,752.1,01.17,0.508
2016-03-09 03:05:00,1867E-3,5C000400,-0724,0837,11993,029.1,045.5,0.253,752.1,01.17,0.508
2016-03-09 03:06:00,1814E-3,5C000400,-0724,0837,12194,029.1,045.5,0.253,752.1,01.17,0.508
2016-03-09 03:07:00,1904E-3,5C000400,-0724,0838,12148,029.1,045.5,0.253,752.0,01.17,0.508
2016-03-09 03:08:00,1779E-3,5C000400,-0724,0837,12114,029.1,045.5,0.253,752.1,01.17,0.508
2016-03-09 03:09:00,1829E-3,5C000400,-0724,0837,12053,029.1,045.5,0.253,752.1,01.17,0.508
2016-03-09 03:10:00,1864E-3,5C000400,-0724,0837,12011,029.1,045.5,0.253,752.0,01.17,0.508
2016-03-09 03:11:00,1795E-3,5C000400,-0724,0837,12091,029.1,045.5,0.253,752.1,01.17,0.508
2016-03-09 03:12:00,1909E-3,5C000400,-0724,0837,12177,029.1,045.5,0.253,752.0,01.17,0.508
2016-03-09 03:13:00,1974E-3,5C000400,-0724,0837,12147,029.1,045.5,0.253,752.0,01.17,0.508
2016-03-09 03:14:00,2048E-3,5C000400,-0724,0838,12032,029.1,045.5,0.253,752.1,01.17,0.508
2016-03-09 03:15:00,1818E-3,5C000400,-0724,0838,12144,029.1,045.5,0.253,752.0,01.17,0.508
2016-03-09 03:16:00,1952E-3,5C000400,-0724,0837,12121,029.1,045.5,0.253,752.0,01.17,0.508
2016-03-09 03:17:00,1865E-3,5C000400,-0724,0837,12149,029.1,045.5,0.253,752.0,01.17,0.508
2016-03-09 03:18:00,1897E-3,5C000400,-0724,0837,12248,029.1,045.5,0.253,752.0,01.17,0.508
2016-03-09 03:19:00,1835E-3,5C000400,-0724,0837,12148,029.1,045.5,0.253,752.0,01.17,0.508
2016-03-09 03:20:00,1839E-3,5C000400,-0724,0837,12120,029.1,045.5,0.253,752.0,01.17,0.508
2016-03-09 03:21:00,1994E-3,5C000400,-0724,0838,12208,029.1,045.5,0.253,752.0,01.17,0.508
2016-03-09 03:22:00,1762E-3,5C000400,-0724,0837,12013,029.1,045.5,0.253,752.0,01.17,0.508
2016-03-09 03:23:00,1873E-3,5C000400,-0724,0838,12083,029.1,045.5,0.254,752.0,01.17,0.508
2016-03-09 03:24:00,1846E-3,5C000400,-0724,0837,11866,029.1,045.5,0.253,752.0,01.17,0.508
2016-03-09 03:25:00,1864E-3,5C000400,-0724,0838,12187,029.0,045.5,0.254,751.9,01.17,0.508
2016-03-09 03:26:00,1822E-3,5C000400,-0724,0837,12197,029.1,045.5,0.253,751.9,01.17,0.508
2016-03-09 03:27:00,1806E-3,5C000400,-0724,0838,12095,029.1,045.5,0.253,751.9,01.17,0.508
2016-03-09 03:28:00,1964E-3,5C000400,-0724,0837,12106,029.1,045.5,0.253,751.9,01.17,0.508
2016-03-09 03:29:00,1788E-3,5C000400,-0724,0838,12157,029.1,045.5,0.253,751.9,01.17,0.508
2016-03-09 03:30:00,1991E-3,5C000400,-0724,0837,12180,029.1,045.5,0.253,751.9,01.17,0.508
2016-03-09 03:31:00,1834E-3,5C000400,-0724,0837,12184,029.1,045.5,0.253,751.9,01.17,0.508
2016-03-09 03:32:00,1825E-3,5C000400,-0724,0836,11990,029.1,045.5,0.253,751.9,01.17,0.508
2016-03-09 03:33:00,1928E-3,5C000400,-0724,0837,12161,029.0,045.5,0.253,751.9,01.17,0.508
2016-03-09 03:34:00,1963E-3,5C000400,-0724,0837,12144,029.0,045.5,0.253,751.9,01.17,0.508
2016-03-09 03:35:00,2004E-3,5C000400,-0724,0837,12251,029.1,045.5,0.253,751.9,01.17,0.508
2016-03-09 03:36:00,1950E-3,5C000400,-0724,0837,12072,029.0,045.5,0.253,752.0,01.17,0.508
2016-03-09 03:37:00,1997E-3,5C000400,-0724,0837,12034,029.1,045.5,0.253,752.0,01.17,0.508
2016-03-09 03:38:00,1739E-3,5C000400,-0724,0837,12067,029.0,045.5,0.254,752.0,01.17,0.508
2016-03-09 03:39:00,1837E-3,5C000400,-0724,0838,12245,029.0,045.5,0.253,751.9,01.17,0.508
2016-03-09 03:40:00,2006E-3,5C000400,-0724,0837,12115,029.0,045.5,0.254,751.9,01.17,0.508
2016-03-09 03:41:00,1702E-3,5C000400,-0724,0837,11972,029.0,045.5,0.253,752.0,01.17,0.508
2016-03-09 03:42:00,1793E-3,5C000400,-0724,0837,12108,029.0,045.5,0.254,751.9,01.17,0.508
2016-03-09 03:43:00,1790E-3,5C000400,-0724,0837,12112,029.0,045.5,0.254,751.9,01.17,0.508
2016-03-09 03:44:00,1876E-3,5C000400,-0724,0837,12062,029.0,045.5,0.254,752.0,01.17,0.508
2016-03-09 03:45:00,1877E-3,5C000400,-0724,0837,12076,029.0,045.5,0.254,751.9,01.17,0.508
2016-03-09 03:46:00,1918E-3,5C000400,-0724,0837,12188,029.0,045.5,0.253,752.0,01.17,0.508
2016-03-09 03:47:00,2005E-3,5C000400,-0724,0837,12103,029.0,045.5,0.254,752.0,01.17,0.508
2016-03-09 03:48:00,1869E-3,5C000400,-0724,0838,12199,028.9,045.5,0.253,752.0,01.17,0.508
2016-03-09 03:49:00,1834E-3,5C000400,-0724,0837,12009,028.9,045.4,0.254,752.0,01.17,0.508
2016-03-09 03:50:00,1924E-3,5C000400,-0724,0837,12215,029.0,045.5,0.253,752.0,01.17,0.508
2016-03-09 03:51:00,1826E-3,5C000400,-0724,0837,12261,029.0,045.5,0.254,752.0,01.17,0.508
2016-03-09 03:52:00,1893E-3,5C000400,-0724,0838,12200,029.0,045.5,0.253,752.0,01.17,0.508
2016-03-09 03:53:00,1879E-3,5C000400,-0724,0838,11995,029.0,045.5,0.254,752.0,01.17,0.508
2016-03-09 03:54:00,1999E-3,5C000400,-0724,0838,12233,029.0,045.5,0.253,751.9,01.17,0.508
2016-03-09 03:55:00,1951E-3,5C000400,-0724,0837,12148,029.0,045.5,0.254,751.9,01.17,0.508
2016-03-09 03:56:00,1844E-3,5C000400,-0724,0837,12018,028.9,045.5,0.253,751.9,01.17,0.508
2016-03-09 03:57:00,1928E-3,5C000400,-0724,0838,12123,028.9,045.4,0.254,751.9,01.17,0.508
2016-03-09 03:58:00,1935E-3,5C000400,-0724,0838,12217,028.9,045.5,0.253,751.9,01.17,0.508
2016-03-09 03:59:00,1817E-3,5C000400,-0724,0837,12101,028.9,045.5,0.254,751.9,01.17,0.508
2016-03-09 04:00:00,1966E-3,5C000400,-0724,0837,12173,028.9,045.5,0.253,751.9,01.17,0.508
2016-03-09 04:01:00,1888E-3,5C000400,-0724,0837,12276,028.9,045.5,0.254,751.9,01.17,0.508
2016-03-09 04:02:00,1816E-3,5C000400,-0724,0837,12045,028.9,045.5,0.253,751.9,01.17,0.508
2016-03-09 04:03:00,1905E-3,5C000400,-0724,0837,12073,028.9,045.5,0.254,751.9,01.17,0.508
2016-03-09 04:04:00,1826E-3,5C000400,-0724,0837,12178,028.8,045.4,0.254,751.9,01.17,0.508
2016-03-09 04:05:00,1877E-3,5C000400,-0724,0838,12134,028.8,045.5,0.254,751.9,01.17,0.508
2016-03-09 04:06:00,1875E-3,5C000400,-0724,0837,12180,028.8,045.5,0.254,751.8,01.17,0.508
2016-03-09 04:07:00,1949E-3,5C000400,-0724,0837,12075,028.9,045.5,0.253,751.8,01.17,0.508
2016-03-09 04:08:00,2001E-3,5C000400,-0724,0838,11915,028.9,045.5,0.254,751.9,01.17,0.508
2016-03-09 04:09:00,1950E-3,5C000400,-0724,0837,12221,028.9,045.5,0.254,751.8,01.17,0.508
2016-03-09 04:10:00,1886E-3,5C000400,-0724,0837,12140,028.9,045.5,0.254,751.8,01.17,0.508
2016-03-09 04:11:00,1783E-3,5C000400,-0724,0836,12160,028.9,045.5,0.254,751.8,01.17,0.508
2016-03-09 04:12:00,1927E-3,5C000400,-0724,0837,12031,028.9,045.5,0.254,751.8,01.17,0.508
2016-03-09 04:13:00,1777E-3,5C000400,-0724,0837,12091,028.9,045.5,0.254,751.8,01.17,0.508
2016-03-09 04:14:00,1860E-3,5C000400,-0724,0837,12162,028.9,045.5,0.253,751.8,01.17,0.508
2016-03-09 04:15:00,1985E-3,5C000400,-0724,0838,12196,029.0,045.5,0.254,751.8,01.17,0.508
2016-03-09 04:16:00,1861E-3,5C000400,-0724,0837,12034,029.0,045.5,0.254,751.8,01.17,0.508
2016-03-09 04:17:00,1960E-3,5C000400,-0724,0838,12111,029.0,045.5,0.254,751.8,01.17,0.508
2016-03-09 04:18:00,2018E-3,5C000400,-0724,0838,12064,028.9,045.5,0.253,751.8,01.17,0.508
2016-03-09 04:19:00,1904E-3,5C000400,-0724,0837,12110,029.0,045.5,0.254,751.8,01.17,0.508
2016-03-09 04:20:00,1703E-3,5C000400,-0724,0838,12067,028.9,045.5,0.253,751.8,01.17,0.508